Time,TemperatureF,DewpointF,PressureIn,WindDirection,WindDirectionDegrees,WindSpeedMPH,WindSpeedGustMPH,Humidity,HourlyPrecipIn,Conditions,Clouds,dailyrainin,SoftwareType,DateUTC
2013-03-16 00:03:00,30.8,25.4,29.94,East,98,11.0,13.0,80,0.00,,---,0.00,VWS V14.00,2013-03-16 04:03:00,
2013-03-16 00:08:00,30.8,25.1,29.94,NNE,32,2.0,13.0,79,0.00,,---,0.00,VWS V14.00,2013-03-16 04:08:00,
2013-03-16 00:13:00,30.8,25.1,29.94,East,86,8.0,13.0,79,0.00,,---,0.00,VWS V14.00,2013-03-16 04:13:00,
2013-03-16 00:18:00,30.8,25.1,29.94,East,96,7.0,13.0,79,0.00,,---,0.00,VWS V14.00,2013-03-16 04:18:00,
2013-03-16 00:23:00,30.8,25.1,29.94,East,82,3.0,13.0,79,0.00,,---,0.00,VWS V14.00,2013-03-16 04:23:00,
2013-03-16 00:28:00,30.7,25.0,29.93,East,94,5.0,7.0,79,0.00,,---,0.00,VWS V14.00,2013-03-16 04:28:00,
2013-03-16 00:33:00,30.7,25.0,29.94,ENE,73,4.0,12.0,79,0.00,,---,0.00,VWS V14.00,2013-03-16 04:33:00,
2013-03-16 00:38:00,30.7,24.7,29.94,ENE,70,5.0,12.0,78,0.00,,---,0.00,VWS V14.00,2013-03-16 04:38:00,
2013-03-16 00:43:00,30.6,24.6,29.94,East,88,5.0,14.0,78,0.00,,---,0.00,VWS V14.00,2013-03-16 04:43:00,
2013-03-16 00:48:00,30.6,24.9,29.94,ESE,104,7.0,14.0,79,0.00,,---,0.00,VWS V14.00,2013-03-16 04:48:00,
2013-03-16 00:53:00,30.6,24.9,29.94,ENE,75,3.0,14.0,79,0.00,,---,0.00,VWS V14.00,2013-03-16 04:53:00,
2013-03-16 00:58:00,30.6,24.9,29.94,East,101,6.0,6.0,79,0.00,,---,0.00,VWS V14.00,2013-03-16 04:58:00,
2013-03-16 01:03:00,30.6,24.9,29.94,East,93,5.0,9.0,79,0.00,,---,0.00,VWS V14.00,2013-03-16 05:03:00,
2013-03-16 01:08:00,30.6,24.6,29.94,ESE,105,6.0,11.0,78,0.00,,---,0.00,VWS V14.00,2013-03-16 05:08:00,
2013-03-16 01:13:00,30.5,24.2,29.94,ESE,107,4.0,13.0,77,0.00,,---,0.00,VWS V14.00,2013-03-16 05:13:00,
2013-03-16 01:18:00,30.5,23.9,29.94,ESE,113,7.0,14.0,76,0.00,,---,0.00,VWS V14.00,2013-03-16 05:18:00,
2013-03-16 01:23:00,30.4,23.8,29.93,East,95,5.0,17.0,76,0.00,,---,0.00,VWS V14.00,2013-03-16 05:23:00,
2013-03-16 01:28:00,30.5,23.9,29.93,East,94,7.0,11.0,76,0.00,,---,0.00,VWS V14.00,2013-03-16 05:28:00,
2013-03-16 01:33:00,30.5,23.9,29.93,East,88,6.0,11.0,76,0.00,,---,0.00,VWS V14.00,2013-03-16 05:33:00,
2013-03-16 01:38:00,30.4,23.8,29.93,ENE,63,5.0,13.0,76,0.00,,---,0.00,VWS V14.00,2013-03-16 05:38:00,
2013-03-16 01:43:00,30.3,23.7,29.93,East,88,6.0,13.0,76,0.00,,---,0.00,VWS V14.00,2013-03-16 05:43:00,
2013-03-16 01:48:00,30.3,23.7,29.93,East,98,5.0,13.0,76,0.00,,---,0.00,VWS V14.00,2013-03-16 05:48:00,
2013-03-16 01:53:00,30.2,23.6,29.93,East,86,6.0,13.0,76,0.00,,---,0.00,VWS V14.00,2013-03-16 05:53:00,
2013-03-16 01:58:00,30.2,23.6,29.93,East,85,2.0,4.0,76,0.00,,---,0.00,VWS V14.00,2013-03-16 05:58:00,
2013-03-16 02:03:00,30.0,23.4,29.93,East,96,7.0,11.0,76,0.00,,---,0.00,VWS V14.00,2013-03-16 06:03:00,
2013-03-16 02:08:00,29.9,23.6,29.93,ENE,65,2.0,12.0,77,0.00,,---,0.00,VWS V14.00,2013-03-16 06:08:00,
2013-03-16 02:13:00,29.6,23.6,29.93,East,89,4.0,12.0,78,0.00,,---,0.00,VWS V14.00,2013-03-16 06:13:00,
2013-03-16 02:18:00,29.4,23.7,29.93,NNE,28,3.0,12.0,79,0.00,,---,0.00,VWS V14.00,2013-03-16 06:18:00,
2013-03-16 02:23:00,29.1,24.0,29.93,East,79,2.0,12.0,81,0.00,,---,0.00,VWS V14.00,2013-03-16 06:23:00,
2013-03-16 02:28:00,28.8,24.0,29.93,NNE,24,2.0,6.0,82,0.00,,---,0.00,VWS V14.00,2013-03-16 06:28:00,
2013-03-16 02:33:00,28.5,24.0,29.93,East,86,3.0,7.0,83,0.00,,---,0.00,VWS V14.00,2013-03-16 06:33:00,
2013-03-16 02:38:00,28.3,24.1,29.93,NE,54,1.0,7.0,84,0.00,,---,0.00,VWS V14.00,2013-03-16 06:38:00,
2013-03-16 02:43:00,28.1,24.2,29.93,ENE,69,4.0,8.0,85,0.00,,---,0.00,VWS V14.00,2013-03-16 06:43:00,
2013-03-16 02:48:00,27.9,24.3,29.93,NE,44,4.0,8.0,86,0.00,,---,0.00,VWS V14.00,2013-03-16 06:48:00,
2013-03-16 02:54:00,27.6,24.2,29.93,NE,40,3.0,9.0,87,0.00,,---,0.00,VWS V14.00,2013-03-16 06:54:00,
2013-03-16 02:59:00,27.4,24.0,29.93,ESE,106,5.0,8.0,87,0.00,,---,0.00,VWS V14.00,2013-03-16 06:59:00,
2013-03-16 03:04:00,27.0,23.6,29.93,ENE,69,7.0,12.0,87,0.01,,---,0.01,VWS V14.00,2013-03-16 07:04:00,
2013-03-16 03:09:00,26.7,23.6,29.93,East,90,1.0,12.0,88,0.01,,---,0.01,VWS V14.00,2013-03-16 07:09:00,
2013-03-16 03:14:00,26.5,23.4,29.93,NNE,26,1.0,12.0,88,0.01,,---,0.01,VWS V14.00,2013-03-16 07:14:00,
2013-03-16 03:19:00,26.4,23.6,29.92,ENE,69,2.0,12.0,89,0.01,,---,0.01,VWS V14.00,2013-03-16 07:19:00,
2013-03-16 03:24:00,26.2,23.4,29.93,NNE,30,3.0,12.0,89,0.01,,---,0.01,VWS V14.00,2013-03-16 07:24:00,
2013-03-16 03:29:00,25.9,23.1,29.93,ENE,63,2.0,7.0,89,0.02,,---,0.02,VWS V14.00,2013-03-16 07:29:00,
2013-03-16 03:34:00,25.7,22.9,29.93,East,84,2.0,9.0,89,0.02,,---,0.02,VWS V14.00,2013-03-16 07:34:00,
2013-03-16 03:39:00,25.6,23.1,29.93,East,101,6.0,9.0,90,0.02,,---,0.02,VWS V14.00,2013-03-16 07:39:00,
2013-03-16 03:44:00,25.4,22.6,29.93,ESE,115,8.0,10.0,89,0.02,,---,0.02,VWS V14.00,2013-03-16 07:44:00,
2013-03-16 03:49:00,25.2,22.4,29.93,ENE,58,6.0,11.0,89,0.03,,---,0.03,VWS V14.00,2013-03-16 07:49:00,
2013-03-16 03:54:00,25.0,22.2,29.92,East,88,3.0,11.0,89,0.03,,---,0.03,VWS V14.00,2013-03-16 07:54:00,
2013-03-16 03:59:00,25.0,22.2,29.92,NE,49,2.0,5.0,89,0.03,,---,0.03,VWS V14.00,2013-03-16 07:59:00,
2013-03-16 04:04:00,24.9,22.1,29.92,East,82,2.0,8.0,89,0.03,,---,0.03,VWS V14.00,2013-03-16 08:04:00,
2013-03-16 04:09:00,24.8,22.0,29.92,NNE,17,2.0,8.0,89,0.03,,---,0.03,VWS V14.00,2013-03-16 08:09:00,
2013-03-16 04:14:00,24.8,22.0,29.92,NE,46,5.0,8.0,89,0.04,,---,0.04,VWS V14.00,2013-03-16 08:14:00,
2013-03-16 04:19:00,24.9,22.4,29.92,SSE,157,5.0,8.0,90,0.04,,---,0.04,VWS V14.00,2013-03-16 08:19:00,
2013-03-16 04:24:00,25.0,22.2,29.91,East,86,5.0,9.0,89,0.04,,---,0.04,VWS V14.00,2013-03-16 08:24:00,
2013-03-16 04:29:00,25.0,22.2,29.91,North,350,5.0,8.0,89,0.02,,---,0.04,VWS V14.00,2013-03-16 08:29:00,
2013-03-16 04:34:00,24.9,22.1,29.91,NE,42,4.0,12.0,89,0.02,,---,0.04,VWS V14.00,2013-03-16 08:34:00,
2013-03-16 04:39:00,24.9,22.1,29.91,NW,308,4.0,12.0,89,0.02,,---,0.04,VWS V14.00,2013-03-16 08:39:00,
2013-03-16 04:44:00,24.7,21.7,29.90,East,85,3.0,12.0,88,0.02,,---,0.04,VWS V14.00,2013-03-16 08:44:00,
2013-03-16 04:49:00,24.7,21.7,29.91,NNE,22,5.0,12.0,88,0.02,,---,0.04,VWS V14.00,2013-03-16 08:49:00,
2013-03-16 04:54:00,24.6,21.6,29.91,ENE,65,4.0,12.0,88,0.03,,---,0.05,VWS V14.00,2013-03-16 08:54:00,
2013-03-16 04:59:00,24.5,21.5,29.91,ESE,109,5.0,6.0,88,0.02,,---,0.05,VWS V14.00,2013-03-16 08:59:00,
2013-03-16 05:04:00,24.3,21.0,29.91,North,5,5.0,10.0,87,0.02,,---,0.05,VWS V14.00,2013-03-16 09:04:00,
2013-03-16 05:09:00,24.3,21.3,29.90,NE,40,3.0,10.0,88,0.02,,---,0.05,VWS V14.00,2013-03-16 09:09:00,
2013-03-16 05:14:00,24.2,21.2,29.91,NE,38,5.0,10.0,88,0.02,,---,0.05,VWS V14.00,2013-03-16 09:14:00,
2013-03-16 05:19:00,24.2,21.2,29.90,North,9,2.0,10.0,88,0.02,,---,0.05,VWS V14.00,2013-03-16 09:19:00,
2013-03-16 05:24:00,24.2,21.2,29.90,East,87,3.0,10.0,88,0.02,,---,0.05,VWS V14.00,2013-03-16 09:24:00,
2013-03-16 05:29:00,24.3,21.3,29.90,North,9,3.0,9.0,88,0.01,,---,0.05,VWS V14.00,2013-03-16 09:29:00,
2013-03-16 05:34:00,24.2,21.2,29.90,NE,55,1.0,10.0,88,0.01,,---,0.05,VWS V14.00,2013-03-16 09:34:00,
2013-03-16 05:39:00,24.2,21.2,29.90,NNE,22,4.0,10.0,88,0.01,,---,0.05,VWS V14.00,2013-03-16 09:39:00,
2013-03-16 05:44:00,24.2,21.2,29.90,NNE,25,5.0,10.0,88,0.02,,---,0.06,VWS V14.00,2013-03-16 09:44:00,
2013-03-16 05:49:00,24.0,21.0,29.90,North,5,3.0,11.0,88,0.02,,---,0.06,VWS V14.00,2013-03-16 09:49:00,
2013-03-16 05:54:00,24.0,21.0,29.90,NNE,19,1.0,11.0,88,0.02,,---,0.06,VWS V14.00,2013-03-16 09:54:00,
2013-03-16 05:59:00,23.8,20.8,29.90,NNW,344,1.0,6.0,88,0.01,,---,0.06,VWS V14.00,2013-03-16 09:59:00,
2013-03-16 06:04:00,23.7,20.7,29.90,ENE,78,4.0,6.0,88,0.01,,---,0.06,VWS V14.00,2013-03-16 10:04:00,
2013-03-16 06:09:00,23.7,20.7,29.90,North,360,2.0,6.0,88,0.01,,---,0.06,VWS V14.00,2013-03-16 10:09:00,
2013-03-16 06:14:00,23.7,20.9,29.89,NNE,30,3.0,6.0,89,0.01,,---,0.06,VWS V14.00,2013-03-16 10:14:00,
2013-03-16 06:19:00,23.6,20.8,29.89,North,5,3.0,6.0,89,0.01,,---,0.06,VWS V14.00,2013-03-16 10:19:00,
2013-03-16 06:24:00,23.5,20.7,29.88,NNE,32,5.0,7.0,89,0.01,,---,0.06,VWS V14.00,2013-03-16 10:24:00,
2013-03-16 06:29:00,23.4,20.9,29.89,NNW,327,2.0,6.0,90,0.02,,---,0.07,VWS V14.00,2013-03-16 10:29:00,
2013-03-16 06:34:00,23.4,20.9,29.90,NNW,343,0.0,6.0,90,0.02,,---,0.07,VWS V14.00,2013-03-16 10:34:00,
2013-03-16 06:39:00,23.4,20.9,29.90,NNE,19,2.0,6.0,90,0.02,,---,0.07,VWS V14.00,2013-03-16 10:39:00,
2013-03-16 06:44:00,23.5,21.0,29.90,NNE,13,4.0,6.0,90,0.03,,---,0.08,VWS V14.00,2013-03-16 10:44:00,
2013-03-16 06:49:00,23.5,21.0,29.90,NNE,15,0.0,6.0,90,0.03,,---,0.08,VWS V14.00,2013-03-16 10:49:00,
2013-03-16 06:54:00,23.6,21.1,29.91,NNW,336,0.0,6.0,90,0.03,,---,0.08,VWS V14.00,2013-03-16 10:54:00,
2013-03-16 06:59:00,23.7,21.2,29.91,North,9,1.0,4.0,90,0.02,,---,0.08,VWS V14.00,2013-03-16 10:59:00,
2013-03-16 07:04:00,23.7,21.2,29.91,North,5,0.0,5.0,90,0.02,,---,0.08,VWS V14.00,2013-03-16 11:04:00,
2013-03-16 07:09:00,23.9,21.4,29.90,North,9,4.0,5.0,90,0.02,,---,0.08,VWS V14.00,2013-03-16 11:09:00,
2013-03-16 07:14:00,23.9,21.4,29.90,North,355,3.0,6.0,90,0.02,,---,0.08,VWS V14.00,2013-03-16 11:14:00,
2013-03-16 07:19:00,23.9,21.4,29.90,North,9,1.0,6.0,90,0.02,,---,0.08,VWS V14.00,2013-03-16 11:19:00,
2013-03-16 07:24:00,23.9,21.4,29.89,NNE,15,4.0,6.0,90,0.02,,---,0.08,VWS V14.00,2013-03-16 11:24:00,
2013-03-16 07:29:00,23.9,21.4,29.89,North,355,3.0,7.0,90,0.02,,---,0.09,VWS V14.00,2013-03-16 11:29:00,
2013-03-16 07:34:00,23.9,21.4,29.89,North,5,5.0,7.0,90,0.02,,---,0.09,VWS V14.00,2013-03-16 11:34:00,
2013-03-16 07:39:00,23.9,21.4,29.90,NNE,15,3.0,7.0,90,0.02,,---,0.09,VWS V14.00,2013-03-16 11:39:00,
2013-03-16 07:44:00,24.0,21.5,29.89,NNW,340,3.0,7.0,90,0.02,,---,0.09,VWS V14.00,2013-03-16 11:44:00,
2013-03-16 07:49:00,24.1,21.6,29.88,North,5,3.0,7.0,90,0.02,,---,0.09,VWS V14.00,2013-03-16 11:49:00,
2013-03-16 07:54:00,24.0,21.5,29.89,NNW,336,4.0,7.0,90,0.03,,---,0.10,VWS V14.00,2013-03-16 11:54:00,
2013-03-16 07:59:00,24.1,21.6,29.90,NNW,332,3.0,5.0,90,0.02,,---,0.10,VWS V14.00,2013-03-16 11:59:00,
2013-03-16 08:04:00,24.0,21.5,29.90,NNW,341,5.0,6.0,90,0.02,,---,0.10,VWS V14.00,2013-03-16 12:04:00,
2013-03-16 08:09:00,23.9,21.4,29.91,North,355,3.0,7.0,90,0.02,,---,0.10,VWS V14.00,2013-03-16 12:09:00,
2013-03-16 08:14:00,23.9,21.4,29.91,North,351,2.0,7.0,90,0.02,,---,0.10,VWS V14.00,2013-03-16 12:14:00,
2013-03-16 08:19:00,23.8,21.3,29.91,NNW,331,2.0,8.0,90,0.02,,---,0.10,VWS V14.00,2013-03-16 12:19:00,
2013-03-16 08:24:00,23.8,21.3,29.91,NNW,343,3.0,10.0,90,0.02,,---,0.10,VWS V14.00,2013-03-16 12:24:00,
2013-03-16 08:29:00,23.7,20.9,29.91,WNW,296,6.0,7.0,89,0.02,,---,0.10,VWS V14.00,2013-03-16 12:29:00,
2013-03-16 08:34:00,23.5,20.7,29.91,NNE,33,2.0,10.0,89,0.03,,---,0.11,VWS V14.00,2013-03-16 12:34:00,
2013-03-16 08:39:00,23.3,20.5,29.92,NW,313,4.0,10.0,89,0.03,,---,0.11,VWS V14.00,2013-03-16 12:39:00,
2013-03-16 08:44:00,23.1,20.4,29.92,NNW,348,3.0,10.0,89,0.03,,---,0.11,VWS V14.00,2013-03-16 12:44:00,
2013-03-16 08:49:00,23.0,20.2,29.92,NW,317,0.0,10.0,89,0.03,,---,0.11,VWS V14.00,2013-03-16 12:49:00,
2013-03-16 08:54:00,23.0,20.2,29.92,NNW,336,3.0,10.0,89,0.03,,---,0.11,VWS V14.00,2013-03-16 12:54:00,
2013-03-16 08:59:00,23.0,20.2,29.92,NNW,341,2.0,7.0,89,0.01,,---,0.11,VWS V14.00,2013-03-16 12:59:00,
2013-03-16 09:04:00,23.1,20.4,29.92,NW,317,3.0,7.0,89,0.01,,---,0.11,VWS V14.00,2013-03-16 13:04:00,
2013-03-16 09:09:00,23.2,20.5,29.92,NW,325,3.0,7.0,89,0.01,,---,0.11,VWS V14.00,2013-03-16 13:09:00,
2013-03-16 09:14:00,23.3,20.5,29.91,North,360,4.0,7.0,89,0.01,,---,0.11,VWS V14.00,2013-03-16 13:14:00,
2013-03-16 09:19:00,23.5,20.7,29.92,NW,319,3.0,7.0,89,0.01,,---,0.11,VWS V14.00,2013-03-16 13:19:00,
2013-03-16 09:24:00,23.5,20.7,29.92,NW,311,3.0,7.0,89,0.01,,---,0.11,VWS V14.00,2013-03-16 13:24:00,
2013-03-16 09:29:00,23.5,20.7,29.92,NNW,332,4.0,5.0,89,0.01,,---,0.11,VWS V14.00,2013-03-16 13:29:00,
2013-03-16 09:34:00,23.6,20.8,29.92,NW,317,2.0,6.0,89,0.01,,---,0.11,VWS V14.00,2013-03-16 13:34:00,
2013-03-16 09:39:00,23.7,21.2,29.92,NW,315,5.0,7.0,90,0.01,,---,0.11,VWS V14.00,2013-03-16 13:39:00,
2013-03-16 09:44:00,23.7,21.2,29.92,NW,322,3.0,7.0,90,0.01,,---,0.11,VWS V14.00,2013-03-16 13:44:00,
2013-03-16 09:49:00,23.8,21.3,29.92,NNW,332,4.0,7.0,90,0.01,,---,0.11,VWS V14.00,2013-03-16 13:49:00,
2013-03-16 09:55:00,24.0,21.5,29.92,NNW,331,7.0,7.0,90,0.01,,---,0.11,VWS V14.00,2013-03-16 13:55:00,
2013-03-16 10:00:00,24.1,21.6,29.92,NNW,335,4.0,5.0,90,0.00,,---,0.11,VWS V14.00,2013-03-16 14:00:00,
2013-03-16 10:05:00,24.2,21.7,29.92,NW,323,2.0,6.0,90,0.00,,---,0.11,VWS V14.00,2013-03-16 14:05:00,
2013-03-16 10:10:00,24.3,21.8,29.92,NNW,329,2.0,6.0,90,0.00,,---,0.11,VWS V14.00,2013-03-16 14:10:00,
2013-03-16 10:15:00,24.5,22.0,29.92,NW,313,4.0,7.0,90,0.00,,---,0.11,VWS V14.00,2013-03-16 14:15:00,
2013-03-16 10:20:00,24.7,22.2,29.93,NW,325,4.0,8.0,90,0.00,,---,0.11,VWS V14.00,2013-03-16 14:20:00,
2013-03-16 10:25:00,25.0,22.5,29.92,NNW,334,2.0,8.0,90,0.00,,---,0.11,VWS V14.00,2013-03-16 14:25:00,
2013-03-16 10:30:00,25.2,22.7,29.92,NW,321,3.0,7.0,90,0.01,,---,0.12,VWS V14.00,2013-03-16 14:30:00,
2013-03-16 10:35:00,25.4,22.9,29.92,NW,309,2.0,7.0,90,0.01,,---,0.12,VWS V14.00,2013-03-16 14:35:00,
2013-03-16 10:40:00,25.8,23.3,29.92,NNW,330,4.0,7.0,90,0.01,,---,0.12,VWS V14.00,2013-03-16 14:40:00,
2013-03-16 10:45:00,26.2,23.7,29.92,NNW,333,0.0,7.0,90,0.01,,---,0.12,VWS V14.00,2013-03-16 14:45:00,
2013-03-16 10:50:00,27.0,24.7,29.92,NW,323,4.0,7.0,91,0.01,,---,0.12,VWS V14.00,2013-03-16 14:50:00,
2013-03-16 10:55:00,27.7,25.2,29.92,NE,44,3.0,9.0,90,0.01,,---,0.12,VWS V14.00,2013-03-16 14:55:00,
2013-03-16 11:00:00,28.1,25.3,29.92,ESE,109,1.0,5.0,89,0.01,,---,0.12,VWS V14.00,2013-03-16 15:00:00,
2013-03-16 11:05:00,28.3,25.2,29.92,NNE,17,1.0,7.0,88,0.01,,---,0.12,VWS V14.00,2013-03-16 15:05:00,
2013-03-16 11:10:00,28.5,25.4,29.92,NNE,20,2.0,7.0,88,0.01,,---,0.12,VWS V14.00,2013-03-16 15:10:00,
2013-03-16 11:15:00,28.4,25.0,29.92,NE,49,4.0,8.0,87,0.01,,---,0.12,VWS V14.00,2013-03-16 15:15:00,
2013-03-16 11:20:00,28.4,25.0,29.92,NNE,26,3.0,10.0,87,0.01,,---,0.12,VWS V14.00,2013-03-16 15:20:00,
2013-03-16 11:25:00,28.6,25.2,29.92,North,355,4.0,10.0,87,0.01,,---,0.12,VWS V14.00,2013-03-16 15:25:00,
2013-03-16 11:30:00,28.7,25.0,29.92,ENE,76,3.0,8.0,86,0.01,,---,0.12,VWS V14.00,2013-03-16 15:30:00,
2013-03-16 11:35:00,28.6,24.7,29.93,ENE,74,4.0,8.0,85,0.01,,---,0.12,VWS V14.00,2013-03-16 15:35:00,
2013-03-16 11:40:00,28.5,24.6,29.93,ESE,105,6.0,8.0,85,0.01,,---,0.12,VWS V14.00,2013-03-16 15:40:00,
2013-03-16 11:45:00,28.5,24.6,29.93,NNE,21,2.0,8.0,85,0.01,,---,0.12,VWS V14.00,2013-03-16 15:45:00,
2013-03-16 11:50:00,28.7,24.8,29.93,ENE,63,2.0,8.0,85,0.01,,---,0.12,VWS V14.00,2013-03-16 15:50:00,
2013-03-16 11:55:00,28.8,24.6,29.93,NNE,30,2.0,8.0,84,0.01,,---,0.12,VWS V14.00,2013-03-16 15:55:00,
2013-03-16 12:00:00,28.9,24.7,29.93,North,349,3.0,7.0,84,0.00,,---,0.12,VWS V14.00,2013-03-16 16:00:00,
2013-03-16 12:05:00,28.9,24.4,29.93,East,90,6.0,7.0,83,0.00,,---,0.12,VWS V14.00,2013-03-16 16:05:00,
2013-03-16 12:10:00,28.9,24.4,29.94,North,5,2.0,8.0,83,0.00,,---,0.12,VWS V14.00,2013-03-16 16:10:00,
2013-03-16 12:15:00,29.0,24.5,29.93,ESE,118,1.0,8.0,83,0.00,,---,0.12,VWS V14.00,2013-03-16 16:15:00,
2013-03-16 12:20:00,29.2,24.7,29.94,NE,44,6.0,8.0,83,0.00,,---,0.12,VWS V14.00,2013-03-16 16:20:00,
2013-03-16 12:25:00,29.3,24.5,29.94,NNE,18,5.0,8.0,82,0.00,,---,0.12,VWS V14.00,2013-03-16 16:25:00,
2013-03-16 12:30:00,29.4,24.6,29.94,NE,55,2.0,11.0,82,0.00,,---,0.12,VWS V14.00,2013-03-16 16:30:00,
2013-03-16 12:35:00,29.3,24.2,29.94,ENE,75,2.0,11.0,81,0.00,,---,0.12,VWS V14.00,2013-03-16 16:35:00,
2013-03-16 12:40:00,29.3,24.2,29.94,East,96,1.0,11.0,81,0.00,,---,0.12,VWS V14.00,2013-03-16 16:40:00,
2013-03-16 12:45:00,29.4,24.3,29.95,East,88,3.0,11.0,81,0.00,,---,0.12,VWS V14.00,2013-03-16 16:45:00,
2013-03-16 12:50:00,29.5,24.4,29.95,North,11,3.0,11.0,81,0.00,,---,0.12,VWS V14.00,2013-03-16 16:50:00,
2013-03-16 12:55:00,29.4,24.0,29.95,North,11,6.0,13.0,80,0.00,,---,0.12,VWS V14.00,2013-03-16 16:55:00,
2013-03-16 13:00:00,29.3,24.2,29.96,NNE,28,6.0,9.0,81,0.00,,---,0.12,VWS V14.00,2013-03-16 17:00:00,
2013-03-16 13:05:00,29.4,24.3,29.96,North,9,7.0,13.0,81,0.00,,---,0.12,VWS V14.00,2013-03-16 17:05:00,
2013-03-16 13:10:00,29.3,24.2,29.96,North,11,4.0,13.0,81,0.00,,---,0.12,VWS V14.00,2013-03-16 17:10:00,
2013-03-16 13:15:00,29.5,24.7,29.97,NNE,17,6.0,13.0,82,0.00,,---,0.12,VWS V14.00,2013-03-16 17:15:00,
2013-03-16 13:20:00,29.2,24.4,29.97,North,9,5.0,13.0,82,0.00,,---,0.12,VWS V14.00,2013-03-16 17:20:00,
2013-03-16 13:25:00,29.1,24.3,29.97,NNE,15,3.0,13.0,82,0.00,,---,0.12,VWS V14.00,2013-03-16 17:25:00,
2013-03-16 13:30:00,29.4,24.9,29.98,NE,44,0.0,6.0,83,0.00,,---,0.12,VWS V14.00,2013-03-16 17:30:00,
2013-03-16 13:35:00,29.5,24.7,29.98,NNE,13,3.0,10.0,82,0.00,,---,0.12,VWS V14.00,2013-03-16 17:35:00,
2013-03-16 13:40:00,29.9,25.1,29.98,NNE,16,2.0,10.0,82,0.00,,---,0.12,VWS V14.00,2013-03-16 17:40:00,
2013-03-16 13:45:00,30.1,25.0,29.98,North,10,10.0,10.0,81,0.00,,---,0.12,VWS V14.00,2013-03-16 17:45:00,
2013-03-16 13:50:00,29.9,24.2,29.99,NNW,331,8.0,10.0,79,0.00,,---,0.12,VWS V14.00,2013-03-16 17:50:00,
2013-03-16 13:55:00,30.0,24.0,29.99,NNE,19,3.0,10.0,78,0.00,,---,0.12,VWS V14.00,2013-03-16 17:55:00,
2013-03-16 14:00:00,29.9,23.9,29.99,NE,36,3.0,9.0,78,0.00,,---,0.12,VWS V14.00,2013-03-16 18:00:00,
2013-03-16 14:05:00,29.5,23.5,29.99,NNE,23,7.0,11.0,78,0.00,,---,0.12,VWS V14.00,2013-03-16 18:05:00,
2013-03-16 14:10:00,29.4,24.0,29.99,North,355,3.0,11.0,80,0.00,,---,0.12,VWS V14.00,2013-03-16 18:10:00,
2013-03-16 14:15:00,29.7,24.6,29.99,North,9,1.0,11.0,81,0.00,,---,0.12,VWS V14.00,2013-03-16 18:15:00,
2013-03-16 14:20:00,30.1,24.4,29.99,NW,323,6.0,11.0,79,0.00,,---,0.12,VWS V14.00,2013-03-16 18:20:00,
2013-03-16 14:25:00,29.7,24.0,29.99,NE,44,2.0,11.0,79,0.00,,---,0.12,VWS V14.00,2013-03-16 18:25:00,
2013-03-16 14:30:00,29.5,24.1,29.99,NE,36,7.0,12.0,80,0.00,,---,0.12,VWS V14.00,2013-03-16 18:30:00,
2013-03-16 14:35:00,29.0,23.9,29.99,NNE,25,1.0,12.0,81,0.00,,---,0.12,VWS V14.00,2013-03-16 18:35:00,
2013-03-16 14:40:00,29.2,24.1,29.99,NNE,19,5.0,12.0,81,0.00,,---,0.12,VWS V14.00,2013-03-16 18:40:00,
2013-03-16 14:45:00,29.2,24.1,30.00,NNE,17,5.0,13.0,81,0.00,,---,0.12,VWS V14.00,2013-03-16 18:45:00,
2013-03-16 14:50:00,29.2,24.1,29.99,ENE,62,4.0,13.0,81,0.00,,---,0.12,VWS V14.00,2013-03-16 18:50:00,
2013-03-16 14:55:00,29.2,23.8,30.00,North,350,4.0,13.0,80,0.00,,---,0.12,VWS V14.00,2013-03-16 18:55:00,
2013-03-16 15:00:00,29.0,23.6,30.00,North,355,5.0,10.0,80,0.00,,---,0.12,VWS V14.00,2013-03-16 19:00:00,
2013-03-16 15:05:00,29.0,23.9,30.00,North,355,5.0,10.0,81,0.00,,---,0.12,VWS V14.00,2013-03-16 19:05:00,
2013-03-16 15:10:00,28.9,23.5,30.00,North,360,2.0,10.0,80,0.00,,---,0.12,VWS V14.00,2013-03-16 19:10:00,
2013-03-16 15:15:00,29.0,23.6,30.00,NNE,22,5.0,13.0,80,0.00,,---,0.12,VWS V14.00,2013-03-16 19:15:00,
2013-03-16 15:20:00,28.9,23.5,30.00,NE,34,5.0,13.0,80,0.00,,---,0.12,VWS V14.00,2013-03-16 19:20:00,
2013-03-16 15:25:00,28.9,23.5,30.00,NNW,342,4.0,13.0,80,0.00,,---,0.12,VWS V14.00,2013-03-16 19:25:00,
2013-03-16 15:30:00,28.9,23.5,30.00,NNE,13,3.0,11.0,80,0.00,,---,0.12,VWS V14.00,2013-03-16 19:30:00,
2013-03-16 15:35:00,28.9,23.5,30.00,North,351,5.0,11.0,80,0.00,,---,0.12,VWS V14.00,2013-03-16 19:35:00,
2013-03-16 15:40:00,28.8,23.7,30.00,NNE,15,5.0,12.0,81,0.00,,---,0.12,VWS V14.00,2013-03-16 19:40:00,
2013-03-16 15:45:00,29.0,24.2,30.00,NNE,30,5.0,12.0,82,0.00,,---,0.12,VWS V14.00,2013-03-16 19:45:00,
2013-03-16 15:50:00,29.1,24.3,30.00,NNE,25,5.0,12.0,82,0.00,,---,0.12,VWS V14.00,2013-03-16 19:50:00,
2013-03-16 15:55:00,29.2,24.1,30.00,NNE,32,3.0,12.0,81,0.00,,---,0.12,VWS V14.00,2013-03-16 19:55:00,
2013-03-16 16:00:00,29.3,24.2,30.00,ENE,59,3.0,8.0,81,0.00,,---,0.12,VWS V14.00,2013-03-16 20:00:00,
2013-03-16 16:06:00,29.2,23.8,30.00,NNE,19,5.0,8.0,80,0.00,,---,0.12,VWS V14.00,2013-03-16 20:06:00,
2013-03-16 16:11:00,29.2,23.8,30.00,NNE,32,5.0,10.0,80,0.00,,---,0.12,VWS V14.00,2013-03-16 20:11:00,
2013-03-16 16:16:00,29.7,24.3,29.99,North,9,2.0,10.0,80,0.00,,---,0.12,VWS V14.00,2013-03-16 20:16:00,
2013-03-16 16:21:00,30.1,24.4,30.00,NNE,29,4.0,10.0,79,0.00,,---,0.12,VWS V14.00,2013-03-16 20:21:00,
2013-03-16 16:26:00,29.8,23.8,30.00,NNE,24,2.0,10.0,78,0.00,,---,0.12,VWS V14.00,2013-03-16 20:26:00,
2013-03-16 16:31:00,29.3,23.3,30.00,ESE,102,4.0,8.0,78,0.00,,---,0.12,VWS V14.00,2013-03-16 20:31:00,
2013-03-16 16:36:00,29.0,23.3,30.00,ENE,61,5.0,8.0,79,0.00,,---,0.12,VWS V14.00,2013-03-16 20:36:00,
2013-03-16 16:41:00,28.8,23.4,30.00,NE,44,3.0,12.0,80,0.00,,---,0.12,VWS V14.00,2013-03-16 20:41:00,
2013-03-16 16:46:00,28.9,23.8,30.00,East,84,3.0,12.0,81,0.00,,---,0.12,VWS V14.00,2013-03-16 20:46:00,
2013-03-16 16:51:00,29.1,24.0,30.00,North,10,3.0,12.0,81,0.00,,---,0.12,VWS V14.00,2013-03-16 20:51:00,
2013-03-16 16:56:00,29.1,24.0,30.00,NE,49,2.0,12.0,81,0.00,,---,0.12,VWS V14.00,2013-03-16 20:56:00,
2013-03-16 17:01:00,28.6,23.2,30.00,NW,323,5.0,7.0,80,0.00,,---,0.12,VWS V14.00,2013-03-16 21:01:00,
2013-03-16 17:06:00,28.2,22.8,30.01,East,93,4.0,8.0,80,0.00,,---,0.12,VWS V14.00,2013-03-16 21:06:00,
2013-03-16 17:11:00,27.9,22.5,30.01,NE,44,1.0,8.0,80,0.00,,---,0.12,VWS V14.00,2013-03-16 21:11:00,
2013-03-16 17:16:00,28.1,22.4,30.01,NE,43,2.0,8.0,79,0.00,,---,0.12,VWS V14.00,2013-03-16 21:16:00,
2013-03-16 17:26:00,28.2,22.8,30.01,ESE,116,2.0,8.0,80,0.00,,---,0.12,VWS V14.00,2013-03-16 21:26:00,
2013-03-16 17:31:00,28.2,22.8,30.01,ENE,63,3.0,4.0,80,0.00,,---,0.12,VWS V14.00,2013-03-16 21:31:00,
2013-03-16 17:36:00,28.0,22.6,30.01,NE,40,4.0,6.0,80,0.00,,---,0.12,VWS V14.00,2013-03-16 21:36:00,
2013-03-16 17:41:00,27.9,22.5,30.01,NNE,15,3.0,6.0,80,0.00,,---,0.12,VWS V14.00,2013-03-16 21:41:00,
2013-03-16 17:46:00,27.8,22.7,30.02,NW,307,2.0,6.0,81,0.00,,---,0.12,VWS V14.00,2013-03-16 21:46:00,
2013-03-16 17:51:00,27.8,22.7,30.02,North,5,1.0,6.0,81,0.00,,---,0.12,VWS V14.00,2013-03-16 21:51:00,
2013-03-16 17:56:00,27.8,22.7,30.02,NE,47,2.0,7.0,81,0.00,,---,0.12,VWS V14.00,2013-03-16 21:56:00,
2013-03-16 18:01:00,27.6,22.5,30.02,NE,52,2.0,6.0,81,0.00,,---,0.12,VWS V14.00,2013-03-16 22:01:00,
2013-03-16 18:06:00,27.5,22.5,30.02,NE,38,3.0,6.0,81,0.00,,---,0.12,VWS V14.00,2013-03-16 22:06:00,
2013-03-16 18:11:00,27.4,22.4,30.02,NE,34,1.0,6.0,81,0.00,,---,0.12,VWS V14.00,2013-03-16 22:11:00,
2013-03-16 18:16:00,27.4,22.4,30.02,NE,51,1.0,6.0,81,0.00,,---,0.12,VWS V14.00,2013-03-16 22:16:00,
2013-03-16 18:21:00,27.4,22.4,30.03,NNE,19,2.0,6.0,81,0.00,,---,0.12,VWS V14.00,2013-03-16 22:21:00,
2013-03-16 18:26:00,27.4,22.6,30.03,NE,36,1.0,6.0,82,0.00,,---,0.12,VWS V14.00,2013-03-16 22:26:00,
2013-03-16 18:31:00,27.5,22.5,30.03,NE,35,1.0,3.0,81,0.00,,---,0.12,VWS V14.00,2013-03-16 22:31:00,
2013-03-16 18:36:00,27.5,22.7,30.03,NE,44,1.0,5.0,82,0.00,,---,0.12,VWS V14.00,2013-03-16 22:36:00,
2013-03-16 18:41:00,27.5,22.5,30.03,NE,55,3.0,5.0,81,0.00,,---,0.12,VWS V14.00,2013-03-16 22:41:00,
2013-03-16 18:46:00,27.3,22.5,30.03,NE,45,2.0,5.0,82,0.00,,---,0.12,VWS V14.00,2013-03-16 22:46:00,
2013-03-16 18:51:00,27.2,22.4,30.03,NE,38,1.0,5.0,82,0.00,,---,0.12,VWS V14.00,2013-03-16 22:51:00,
2013-03-16 18:57:00,27.2,22.4,30.03,NE,41,0.0,5.0,82,0.00,,---,0.12,VWS V14.00,2013-03-16 22:57:00,
2013-03-16 19:02:00,27.0,22.5,30.04,NE,41,0.0,3.0,83,0.00,,---,0.12,VWS V14.00,2013-03-16 23:02:00,
2013-03-16 19:07:00,26.9,22.4,30.04,NE,50,1.0,4.0,83,0.00,,---,0.12,VWS V14.00,2013-03-16 23:07:00,
2013-03-16 19:12:00,26.9,22.4,30.04,NE,50,0.0,4.0,83,0.00,,---,0.12,VWS V14.00,2013-03-16 23:12:00,
2013-03-16 19:17:00,26.8,22.3,30.04,NE,51,0.0,4.0,83,0.00,,---,0.12,VWS V14.00,2013-03-16 23:17:00,
2013-03-16 19:22:00,26.8,22.3,30.04,NE,51,0.0,4.0,83,0.00,,---,0.12,VWS V14.00,2013-03-16 23:22:00,
2013-03-16 19:27:00,26.6,22.1,30.04,ESE,111,2.0,5.0,83,0.00,,---,0.12,VWS V14.00,2013-03-16 23:27:00,
2013-03-16 19:32:00,26.5,22.3,30.04,East,98,4.0,5.0,84,0.00,,---,0.12,VWS V14.00,2013-03-16 23:32:00,
2013-03-16 19:37:00,26.3,22.1,30.04,East,99,1.0,5.0,84,0.00,,---,0.12,VWS V14.00,2013-03-16 23:37:00,
2013-03-16 19:42:00,26.3,22.4,30.04,East,99,0.0,5.0,85,0.00,,---,0.12,VWS V14.00,2013-03-16 23:42:00,
2013-03-16 19:47:00,26.1,22.2,30.04,East,98,4.0,5.0,85,0.00,,---,0.12,VWS V14.00,2013-03-16 23:47:00,
2013-03-16 19:52:00,26.0,22.1,30.04,East,98,1.0,5.0,85,0.00,,---,0.12,VWS V14.00,2013-03-16 23:52:00,
2013-03-16 19:57:00,25.8,23.8,30.04,East,98,0.0,5.0,92,0.00,,---,0.12,VWS V14.00,2013-03-16 23:57:00,
2013-03-16 20:02:00,25.8,21.9,30.04,East,98,0.0,2.0,85,0.00,,---,0.12,VWS V14.00,2013-03-17 00:02:00,
2013-03-16 20:07:00,25.8,22.2,30.05,East,98,0.0,2.0,86,0.00,,---,0.12,VWS V14.00,2013-03-17 00:07:00,
2013-03-16 20:12:00,25.8,22.2,30.05,East,98,0.0,2.0,86,0.00,,---,0.12,VWS V14.00,2013-03-17 00:12:00,
2013-03-16 20:17:00,25.8,22.2,30.05,East,98,0.0,2.0,86,0.00,,---,0.12,VWS V14.00,2013-03-17 00:17:00,
2013-03-16 20:22:00,25.9,22.3,30.05,East,98,0.0,2.0,86,0.00,,---,0.12,VWS V14.00,2013-03-17 00:22:00,
2013-03-16 20:27:00,25.9,22.3,30.05,East,98,0.0,2.0,86,0.00,,---,0.12,VWS V14.00,2013-03-17 00:27:00,
2013-03-16 20:32:00,25.9,22.3,30.05,East,98,0.0,2.0,86,0.00,,---,0.12,VWS V14.00,2013-03-17 00:32:00,
2013-03-16 20:37:00,25.9,22.3,30.05,East,98,1.0,4.0,86,0.00,,---,0.12,VWS V14.00,2013-03-17 00:37:00,
2013-03-16 20:42:00,25.8,22.2,30.05,East,99,2.0,4.0,86,0.00,,---,0.12,VWS V14.00,2013-03-17 00:42:00,
2013-03-16 20:47:00,25.7,22.4,30.05,East,98,0.0,4.0,87,0.00,,---,0.12,VWS V14.00,2013-03-17 00:47:00,
2013-03-16 20:52:00,25.6,22.3,30.05,East,98,1.0,4.0,87,0.00,,---,0.12,VWS V14.00,2013-03-17 00:52:00,
2013-03-16 20:57:00,25.4,22.1,30.05,East,98,2.0,5.0,87,0.00,,---,0.12,VWS V14.00,2013-03-17 00:57:00,
2013-03-16 21:02:00,25.4,22.1,30.05,East,98,2.0,4.0,87,0.00,,---,0.12,VWS V14.00,2013-03-17 01:02:00,
2013-03-16 21:07:00,25.2,21.9,30.06,East,98,1.0,4.0,87,0.00,,---,0.12,VWS V14.00,2013-03-17 01:07:00,
2013-03-16 21:12:00,25.2,21.9,30.06,East,98,2.0,4.0,87,0.00,,---,0.12,VWS V14.00,2013-03-17 01:12:00,
2013-03-16 21:17:00,25.1,21.8,30.06,East,99,0.0,4.0,87,0.00,,---,0.12,VWS V14.00,2013-03-17 01:17:00,
2013-03-16 21:22:00,25.1,21.8,30.06,East,98,2.0,4.0,87,0.00,,---,0.12,VWS V14.00,2013-03-17 01:22:00,
2013-03-16 21:27:00,25.1,21.8,30.06,East,98,2.0,4.0,87,0.00,,---,0.12,VWS V14.00,2013-03-17 01:27:00,
2013-03-16 21:32:00,25.0,21.7,30.06,East,98,1.0,4.0,87,0.00,,---,0.12,VWS V14.00,2013-03-17 01:32:00,
2013-03-16 21:37:00,25.0,21.7,30.06,East,98,1.0,4.0,87,0.00,,---,0.12,VWS V14.00,2013-03-17 01:37:00,
2013-03-16 21:42:00,25.0,21.7,30.06,East,98,2.0,4.0,87,0.00,,---,0.12,VWS V14.00,2013-03-17 01:42:00,
2013-03-16 21:47:00,25.0,21.7,30.06,East,98,0.0,4.0,87,0.00,,---,0.12,VWS V14.00,2013-03-17 01:47:00,
2013-03-16 21:52:00,25.0,21.7,30.07,East,98,0.0,4.0,87,0.00,,---,0.12,VWS V14.00,2013-03-17 01:52:00,
2013-03-16 21:57:00,25.0,21.7,30.07,East,98,0.0,4.0,87,0.00,,---,0.12,VWS V14.00,2013-03-17 01:57:00,
2013-03-16 22:02:00,25.1,21.8,30.07,East,99,0.0,1.0,87,0.00,,---,0.12,VWS V14.00,2013-03-17 02:02:00,
2013-03-16 22:07:00,25.1,21.8,30.07,East,99,1.0,2.0,87,0.00,,---,0.12,VWS V14.00,2013-03-17 02:07:00,
2013-03-16 22:12:00,25.1,21.8,30.07,East,99,1.0,2.0,87,0.00,,---,0.12,VWS V14.00,2013-03-17 02:12:00,
2013-03-16 22:17:00,25.1,21.8,30.08,East,99,0.0,2.0,87,0.00,,---,0.12,VWS V14.00,2013-03-17 02:17:00,
2013-03-16 22:22:00,25.0,21.7,30.08,East,98,2.0,2.0,87,0.00,,---,0.12,VWS V14.00,2013-03-17 02:22:00,
2013-03-16 22:27:00,25.0,21.7,30.08,East,99,1.0,2.0,87,0.00,,---,0.12,VWS V14.00,2013-03-17 02:27:00,
2013-03-16 22:32:00,25.1,21.8,30.08,East,98,0.0,1.0,87,0.00,,---,0.12,VWS V14.00,2013-03-17 02:32:00,
2013-03-16 22:37:00,25.1,21.8,30.08,East,98,0.0,2.0,87,0.00,,---,0.12,VWS V14.00,2013-03-17 02:37:00,
2013-03-16 22:42:00,25.0,21.7,30.08,East,98,0.0,2.0,87,0.00,,---,0.12,VWS V14.00,2013-03-17 02:42:00,
2013-03-16 22:47:00,25.0,22.0,30.08,East,98,0.0,2.0,88,0.00,,---,0.12,VWS V14.00,2013-03-17 02:47:00,
2013-03-16 22:52:00,25.0,21.7,30.08,East,98,0.0,2.0,87,0.00,,---,0.12,VWS V14.00,2013-03-17 02:52:00,
2013-03-16 22:58:00,25.1,22.0,30.09,East,98,1.0,1.0,88,0.00,,---,0.12,VWS V14.00,2013-03-17 02:58:00,
2013-03-16 23:03:00,25.0,22.0,30.09,East,98,0.0,1.0,88,0.00,,---,0.12,VWS V14.00,2013-03-17 03:03:00,
2013-03-16 23:08:00,25.1,22.0,30.09,ENE,58,1.0,4.0,88,0.00,,---,0.12,VWS V14.00,2013-03-17 03:08:00,
2013-03-16 23:13:00,25.0,22.0,30.09,ENE,58,0.0,4.0,88,0.00,,---,0.12,VWS V14.00,2013-03-17 03:13:00,
2013-03-16 23:18:00,25.0,22.0,30.09,ENE,59,0.0,4.0,88,0.00,,---,0.12,VWS V14.00,2013-03-17 03:18:00,
2013-03-16 23:23:00,24.9,21.9,30.09,ENE,59,0.0,4.0,88,0.00,,---,0.12,VWS V14.00,2013-03-17 03:23:00,
2013-03-16 23:28:00,24.9,22.1,30.10,NNW,333,1.0,2.0,89,0.00,,---,0.12,VWS V14.00,2013-03-17 03:28:00,
2013-03-16 23:33:00,24.9,21.9,30.10,NNW,333,2.0,3.0,88,0.00,,---,0.12,VWS V14.00,2013-03-17 03:33:00,
2013-03-16 23:38:00,24.8,22.0,30.10,NNW,333,2.0,3.0,89,0.00,,---,0.12,VWS V14.00,2013-03-17 03:38:00,
2013-03-16 23:43:00,24.8,22.0,30.10,NNW,333,2.0,3.0,89,0.00,,---,0.12,VWS V14.00,2013-03-17 03:43:00,
2013-03-16 23:48:00,24.7,21.9,30.11,NNW,329,2.0,4.0,89,0.00,,---,0.12,VWS V14.00,2013-03-17 03:48:00,
2013-03-16 23:53:00,24.7,21.9,30.11,NNW,327,1.0,4.0,89,0.00,,---,0.12,VWS V14.00,2013-03-17 03:53:00,
2013-03-16 23:58:00,24.6,21.8,30.11,NW,316,1.0,2.0,89,0.00,,---,0.00,VWS V14.00,2013-03-17 03:58:00,